Theta_e
330 329 329 329 330 330 330 331 331 331 331 331 330 330 330 329 328 328 327 327 327 327 327 327 326 326 326 327 327 326 326 327 326 326 325 324 324 323 323 323 323 322
329 329 328 328 329 329 329 330 330 330 331 330 330 330 330 329 329 328 328 327 326 327 327 327 326 326 326 326 326 326 326 326 326 326 326 325 324 324 323 323 323 323
329 329 328 328 328 329 329 329 329 330 330 330 330 330 329 329 329 329 328 327 327 326 327 326 326 326 325 326 326 326 326 326 326 325 325 325 324 324 323 323 323 323
329 329 329 329 328 328 328 328 329 329 329 330 330 329 329 329 329 329 328 328 327 327 327 326 326 326 326 326 325 325 326 325 325 325 324 324 324 323 323 323 322 322
328 328 329 329 329 328 328 328 329 329 329 329 329 329 328 328 328 328 328 327 327 327 327 326 326 326 326 326 326 325 325 325 324 324 324 324 324 323 323 323 322 322
328 329 329 329 329 329 329 329 328 329 329 329 329 329 329 328 328 328 328 328 327 327 327 327 326 326 325 325 326 325 325 325 324 324 324 323 323 323 323 322 322 322
328 329 329 329 329 329 329 329 328 328 328 329 329 328 328 329 328 328 328 327 327 327 326 326 326 326 325 325 325 325 325 324 324 324 323 323 323 322 322 322 322 322
327 328 328 329 329 329 328 328 328 328 327 328 328 328 328 328 328 328 328 327 327 327 326 326 326 325 326 325 325 325 325 324 324 323 323 323 322 322 322 322 322 321
325 325 326 327 328 328 328 327 327 327 327 327 327 327 327 328 328 328 328 327 327 327 326 326 325 325 325 325 325 325 325 324 324 323 323 323 322 322 322 322 321 321
323 323 324 325 326 327 327 327 327 327 326 327 327 327 327 327 327 327 328 327 327 327 326 325 325 325 325 325 325 325 325 324 324 323 323 323 322 322 322 321 321 321
321 322 323 324 325 326 326 326 326 326 326 326 326 326 327 327 327 327 327 327 327 326 326 325 325 325 325 325 325 325 325 324 324 324 324 323 323 322 322 321 321 321
319 320 322 323 324 325 326 326 326 326 326 326 326 326 326 327 327 327 327 327 326 326 326 325 325 325 325 325 325 325 325 324 324 324 324 323 323 323 322 322 321 321
317 319 320 321 322 323 324 325 325 325 325 325 325 326 326 326 326 327 326 326 326 326 326 325 325 325 325 325 325 325 325 324 324 324 324 323 323 323 323 322 322 322
314 316 318 320 321 321 322 323 324 324 324 325 325 325 325 325 325 326 325 325 325 325 325 325 325 325 325 325 325 325 324 324 324 324 323 323 323 323 323 323 322 322
310 312 314 316 318 319 320 321 322 322 323 324 324 324 324 324 324 324 324 325 325 324 325 325 325 325 325 325 325 324 324 324 324 324 323 323 323 323 323 323 323 323
309 309 310 312 313 314 315 317 318 320 321 322 323 323 323 323 323 323 323 324 324 324 324 324 324 324 324 324 325 324 324 324 324 324 323 323 323 322 322 323 323 322
307 308 308 309 309 310 311 312 313 315 317 318 319 319 320 321 321 321 321 322 323 323 323 323 323 324 324 324 324 324 324 324 324 323 323 323 323 323 322 322 322 322
306 306 306 307 307 308 308 309 309 310 311 313 314 315 316 317 318 318 319 320 321 321 322 322 322 323 323 323 324 324 324 324 324 323 323 323 323 322 322 322 321 321
306 305 305 306 306 306 306 307 307 308 308 309 310 311 312 313 314 315 316 317 318 319 320 320 321 322 322 323 323 323 323 323 323 323 322 322 322 322 322 321 321 321
306 306 306 305 305 305 305 305 305 306 306 307 307 308 308 309 311 312 313 314 316 317 318 318 319 320 321 321 322 322 323 323 323 322 322 322 322 322 321 320 320 320
307 307 307 306 305 305 304 304 304 305 305 305 306 306 307 307 308 309 310 312 313 314 316 316 317 318 319 320 320 321 322 322 322 321 321 320 320 320 320 320 320 320
307 307 307 306 305 305 304 303 303 304 304 304 303 304 305 306 306 307 308 309 310 312 313 314 315 316 317 318 319 319 320 320 320 320 319 319 319 319 319 319 319 319
306 306 306 306 305 305 304 304 304 304 303 303 302 302 302 303 304 305 306 307 308 310 311 312 313 314 315 316 317 318 318 318 318 317 317 317 317 317 317 317 318 319
305 305 305 305 304 304 304 305 304 304 303 302 301 301 301 302 302 303 304 305 307 308 309 310 311 312 314 315 316 317 317 317 317 317 316 314 314 315 315 316 317 318
304 304 304 304 304 304 304 304 304 303 303 302 301 300 300 301 302 302 303 304 305 306 307 308 310 311 312 313 315 316 316 317 316 315 313 313 313 313 313 314 315 315
303 303 303 303 303 304 303 303 303 302 301 301 300 300 300 300 301 302 302 303 304 305 306 308 309 309 310 311 313 314 314 315 314 313 312 312 312 312 312 312 312 313
Wind_Speed
27 27 27 27 27 28 27 26 25 25 24 25 26 26 28 31 32 32 34 37 36 34 34 31 29 29 27 27 28 28 29 30 30 30 30 30 31 30 29 30 28 27
27 27 28 27 26 28 29 27 26 25 24 25 26 25 25 27 28 30 32 33 34 35 35 33 31 28 26 27 29 29 30 30 30 30 30 31 32 30 31 31 29 28
26 27 28 29 28 28 27 26 26 26 25 25 25 25 26 26 25 28 30 31 32 33 33 32 30 27 26 28 29 30 31 31 30 30 29 31 32 31 31 30 30 30
26 27 28 29 30 28 26 25 25 26 26 26 26 27 27 27 26 28 30 30 31 31 32 32 29 27 27 28 30 30 31 32 32 30 29 31 33 32 31 29 30 31
26 28 28 28 27 27 26 26 26 26 26 26 26 26 26 27 29 30 31 31 32 32 31 30 30 29 29 29 31 31 30 31 31 30 30 31 33 33 31 29 30 30
23 25 26 25 25 24 24 25 26 26 25 25 24 24 24 26 29 31 31 30 31 32 31 30 29 30 30 30 31 32 32 31 30 31 31 31 32 33 32 31 31 31
21 20 22 22 23 23 23 24 25 26 25 24 24 24 24 25 26 29 30 29 28 29 31 31 31 30 30 31 32 32 33 33 31 31 32 31 31 32 32 32 32 32
19 19 20 21 22 23 24 25 25 26 26 25 24 25 26 27 27 27 28 29 29 28 28 29 31 31 31 31 32 33 34 33 31 31 32 32 31 32 33 33 33 33
20 21 22 22 23 24 26 28 27 27 26 26 25 25 26 29 29 28 28 29 30 30 29 28 29 30 32 33 33 33 35 34 33 32 33 33 33 32 32 32 33 33
21 23 23 23 25 25 26 27 27 25 25 25 25 25 26 27 29 29 28 29 30 30 31 31 31 31 32 33 33 34 36 36 35 34 34 34 34 33 32 32 33 33
21 22 22 24 25 25 26 26 25 24 24 25 24 25 26 26 27 28 29 30 31 32 33 33 33 32 32 33 34 35 36 36 35 35 35 35 35 34 34 33 34 34
21 21 22 23 23 24 24 24 24 25 25 25 25 25 26 26 27 28 30 30 31 32 32 33 33 33 32 33 33 34 34 35 35 36 36 36 36 35 35 35 35 36
21 21 21 21 22 23 23 23 24 24 25 25 25 26 27 29 29 29 30 31 31 31 31 32 32 32 32 33 33 33 34 34 34 35 35 36 37 36 35 35 35 35
23 21 20 20 21 21 22 23 23 24 25 25 25 27 29 31 30 30 30 30 31 32 32 32 32 32 32 33 34 34 34 34 34 34 34 35 35 36 36 35 35 35
24 22 22 22 21 22 22 23 24 25 25 25 26 28 29 30 31 30 30 30 31 33 34 34 34 34 34 34 35 34 34 34 34 34 35 35 34 33 34 34 35 36
24 24 24 24 25 26 26 25 25 25 25 26 27 28 29 29 29 29 29 31 32 32 33 34 35 36 37 37 37 36 35 34 34 34 35 35 34 33 33 34 35 36
24 25 25 26 28 29 28 27 25 25 26 28 29 29 30 29 29 29 31 32 33 32 33 34 36 37 38 38 38 38 37 36 35 35 35 35 35 35 35 35 36 36
24 24 25 27 29 29 28 27 26 26 28 30 31 32 31 31 32 33 33 33 33 34 35 36 37 38 38 38 39 39 39 38 37 36 35 35 36 35 35 35 36 36
22 23 25 27 28 27 27 26 26 28 29 30 31 31 31 32 34 35 34 34 34 35 37 38 38 38 39 39 40 39 39 39 39 38 36 35 35 35 35 36 36 36
20 22 24 26 25 24 24 26 27 29 31 31 31 30 30 32 34 34 34 35 35 36 37 37 38 38 38 38 38 38 38 39 39 39 37 36 36 36 36 36 35 35
21 22 23 23 23 22 23 25 27 29 31 31 30 31 32 33 33 34 35 35 35 36 36 37 39 38 37 37 36 37 37 37 38 38 37 35 35 35 35 35 35 35
24 23 22 22 21 21 23 26 27 29 31 29 28 29 30 31 32 34 35 34 34 34 35 37 39 37 36 35 35 35 35 35 36 36 35 34 33 33 34 34 34 33
24 24 23 23 21 21 24 26 27 29 29 27 27 28 29 31 32 32 32 32 32 32 33 36 38 36 35 35 34 33 33 34 34 33 32 32 33 33 33 33 32 31
24 23 24 24 23 24 25 26 27 27 27 26 26 28 30 31 30 30 31 32 32 33 33 34 36 36 34 33 33 32 32 33 33 33 32 31 31 31 31 31 31 31
24 23 24 25 25 26 27 27 27 27 25 25 25 26 28 29 27 27 30 32 32 33 32 32 34 35 33 32 32 32 33 33 33 32 31 30 30 29 29 28 29 30
23 23 25 26 26 27 28 27 27 26 24 24 24 25 26 26 26 27 29 30 30 30 30 31 33 33 33 32 32 32 32 33 33 32 32 31 30 30 29 28 28 29
Wind_Direction
225 225 226 226 226 227 226 223 222 221 218 216 216 217 219 225 228 226 226 228 225 221 222 223 223 226 226 225 224 223 225 227 227 229 228 227 229 228 228 229 228 227
226 228 230 228 228 230 229 226 225 224 223 223 222 221 225 231 229 226 227 228 226 224 225 225 226 228 226 225 226 225 226 227 228 229 229 228 229 228 228 229 229 229
225 227 228 227 228 228 227 228 229 228 228 229 228 226 229 232 229 226 227 228 227 227 226 225 226 225 223 224 225 226 228 228 228 229 229 228 227 227 228 229 230 230
226 227 227 227 229 228 228 228 227 228 228 228 229 231 233 232 228 227 228 229 228 227 227 226 223 221 221 224 225 226 228 230 230 230 229 228 226 226 227 228 228 229
229 230 230 229 230 230 229 228 227 227 227 227 228 231 231 229 227 229 231 232 230 228 227 225 222 221 224 225 225 225 226 228 229 228 227 227 226 226 226 227 227 227
231 231 231 230 230 230 229 229 230 230 229 229 229 230 229 227 227 230 231 231 230 229 226 222 222 225 227 226 224 223 223 225 226 226 226 226 226 226 226 227 228 227
233 232 232 232 232 232 232 231 232 233 233 232 231 232 233 231 227 227 229 230 230 229 226 224 226 226 225 223 222 222 222 224 226 226 224 224 224 226 227 229 229 228
236 234 232 232 230 231 233 234 233 232 233 234 233 234 235 234 231 230 232 231 228 227 226 227 227 224 221 221 221 221 220 221 223 223 223 223 225 227 229 230 230 230
239 239 236 233 231 231 233 235 234 234 235 235 236 236 236 236 236 235 236 231 226 226 227 226 224 221 220 221 220 220 219 219 221 222 224 224 225 228 230 231 231 231
241 243 242 238 236 235 236 237 237 237 237 236 236 237 236 237 237 236 234 230 225 225 225 224 223 221 221 222 221 222 221 221 224 226 228 229 229 231 234 234 234 233
246 246 245 242 241 240 241 240 239 238 237 237 237 237 237 238 237 234 231 228 226 225 224 224 225 224 224 224 224 224 224 225 228 231 232 233 233 234 235 236 235 235
251 248 246 245 245 245 245 243 241 239 238 237 236 235 235 236 236 233 230 229 228 228 228 228 229 228 228 228 227 227 229 231 234 235 235 235 235 235 236 236 236 235
255 252 250 249 248 248 248 247 244 241 240 238 237 237 235 235 235 235 234 234 233 232 233 233 234 233 233 233 232 233 235 236 236 235 234 234 235 236 237 237 237 236
261 257 255 254 252 251 250 248 246 244 242 240 238 238 238 236 236 238 238 238 237 236 237 237 236 236 235 236 236 237 237 237 236 234 234 234 235 236 236 236 238 239
270 265 261 258 255 253 251 249 248 248 246 243 240 239 240 239 238 239 238 238 238 238 237 237 237 237 237 237 237 236 236 235 235 234 234 235 235 235 235 236 238 240
280 275 269 265 261 258 256 254 251 248 245 243 241 240 240 240 239 238 237 238 239 239 238 236 236 237 238 238 238 237 235 235 234 234 234 234 235 236 237 238 240 239
286 282 276 272 268 265 262 259 256 250 246 245 245 244 243 242 241 240 239 239 239 239 238 237 236 237 237 238 238 237 236 235 234 234 234 234 235 235 236 239 241 241
289 285 280 276 273 268 264 262 261 259 255 251 250 250 249 247 245 243 241 240 239 238 238 238 238 238 237 238 238 238 237 236 235 234 234 233 234 235 237 239 241 243
290 286 282 279 276 272 267 263 261 262 260 257 255 254 253 252 250 247 244 242 240 240 240 239 239 239 238 238 238 238 238 237 236 235 234 234 236 237 239 239 239 241
289 286 283 282 280 276 270 265 263 262 261 258 256 253 251 251 251 250 247 245 243 243 243 243 243 241 240 239 238 238 238 238 237 236 235 236 237 237 238 239 239 240
285 284 283 283 281 278 274 270 268 267 264 260 255 251 249 249 249 248 247 246 245 245 246 247 247 245 244 242 241 240 240 239 239 238 238 238 238 238 240 241 242 241
284 282 282 282 280 277 275 273 272 271 269 266 260 255 253 250 248 247 247 246 245 245 246 248 250 249 247 245 244 243 241 241 241 239 238 240 241 242 243 242 242 240
288 285 284 283 279 274 273 275 275 273 271 268 263 259 257 253 250 249 248 247 246 244 244 247 250 250 249 248 247 245 243 242 241 241 240 241 242 242 241 239 239 239
295 289 284 283 279 275 274 276 276 274 271 268 263 260 258 256 254 252 250 248 245 243 243 246 249 250 249 247 246 244 242 242 242 242 241 240 238 238 237 236 236 237
299 293 286 283 280 278 278 278 277 275 272 267 263 260 259 259 258 255 253 251 248 245 244 244 247 249 248 246 244 241 239 239 238 235 233 232 231 231 231 232 233 232
300 297 291 285 281 281 281 280 279 277 274 268 264 260 259 258 257 255 255 255 253 249 246 244 246 249 248 247 246 241 236 233 231 227 225 226 227 226 226 226 226 226